User: anonymous   Login
Location: Unspecified
(43.4680°N, 87.1740°E)
Time: 03:40:35
(UTC+00:00)
Language:

Cosmos 2228 - Orbit

View from above orbital plane
View from above orbital plane
View from above satellite
View from above satellite

Ground track
Ground track

The orbit data is extracted from the following two-line orbital elements,

1 22286U 92094A   21171.42947539  .00000182  00000-0  17017-4 0  9990
2 22286  82.5210  72.6058 0019783 301.3811  58.5470 14.88287165540247
Epoch (UTC): 20 June 2021 10:18:26
Eccentricity: 0.0019783
inclination: 82.5210°
perigee height: 589 km
apogee height: 617 km
right ascension of ascending node: 72.6058°
argument of perigee: 301.3811°
revolutions per day: 14.88287165
mean anomaly at epoch: 58.5470°
orbit number at epoch: 54024

The dashed part of the orbit path shows where the satellite is in the earth's shadow,  

DLR